Regional Weather Roundup
Issued by NWS

Home | Current Version | Previous Version | Text Only | Print | Product List | Glossary Off
Versions: 1 2 3 4 5 6 7 8 9 10 11 12 13 14 15 16 17 18 19 20 21 22 23 24 25 26 27 28 29 30 31 32 33 34 35 36 37 38 39 40 41 42 43 44 45 46 47 48 49 50

000
ASUS43 KMPX 240001
RWRMN
WEATHER ROUNDUP FOR MINNESOTA
NATIONAL WEATHER SERVICE TWIN CITIES/CHANHASSEN MN
700 PM CDT SUN JUL 23 2017


NOTE: "FAIR" INDICATES FEW OR NO CLOUDS BELOW 12,000 FEET WITH NO
SIGNIFICANT WEATHER AND/OR OBSTRUCTIONS TO VISIBILITY. N/A MEANS
CURRENT SKY AND/OR WEATHER CONDITIONS ARE NOT AVAILABLE.

MNZ060>063-068>070-240100-
   Twin Cities Metro

CITY           SKY/WX    TMP DP  RH WIND       PRES   REMARKS
TWIN CITIES    MOSUNNY   74  57  55 NE16      29.97R
6HR MIN TEMP:  73; 6HR MAX TEMP:  79;

ST PAUL        SUNNY     73  57  57 NE12      29.97R
CRYSTAL        PTSUNNY   74  55  51 NE9       29.96R
BLAINE         MOSUNNY   75  57  53 NE10      29.97R
LAKEVILLE      SUNNY     72  57  60 NE12      29.96R
EDEN PRAIRIE   MOSUNNY   76  58  53 NE12G18   29.95R
6HR MIN TEMP:  74; 6HR MAX TEMP:  79;

SOUTH ST PAUL  SUNNY     74  56  53 N7        29.97R
LAKE ELMO      PTSUNNY   72  59  64 N7        29.99R
$$
MNZ001>005-007-008-013>017-022>024-027-028-240100-
   Northwest Minnesota

CITY           SKY/WX    TMP DP  RH WIND       PRES   REMARKS
BEMIDJI        SUNNY     72  57  58 S3        30.01S
HALLOCK        SUNNY     79  61  53 S3        29.96S
ROSEAU         SUNNY     77  63  61 CALM      29.98S
WARROAD        SUNNY     75  63  64 E5        29.99S
CROOKSTON      SUNNY     75  63  64 CALM      29.98S
FOSSTON        SUNNY     79  66  65 CALM      30.00F
DETROIT LAKES  SUNNY     73  59  60 CALM      30.01S
MOORHEAD       MOSUNNY   75  61  60 CALM      29.98F
PARK RAPIDS    SUNNY     73  55  53 NE7       30.01S
MAHNOMEN       FAIR      74  59  60 NE5       29.99F
$$
MNZ006-009>011-018-025>026-240100-
   North Central Minnesota

CITY           SKY/WX    TMP DP  RH WIND       PRES   REMARKS
BAUDETTE       SUNNY     77  59  53 N6        29.98F
FLAG ISLAND    SUNNY     75  55  50 CALM      29.97F
INTL FALLS     SUNNY     77  52  41 NE3       29.99S
6HR MIN TEMP:  74; 6HR MAX TEMP:  78;

WASKISH        SUNNY     75  63  64 W8        29.99S
BIG FORK       MOSUNNY   75  55  50 CALM      30.00S
LONGVILLE      SUNNY     72  57  60 CALM      30.01S
GRAND RAPIDS   SUNNY     70  58  65 CALM      30.02F
CRANE LAKE     SUNNY     73  50  43 CALM      30.01S
ORR            MOSUNNY   73  54  49 CALM      29.97F
COOK           SUNNY     73  55  53 CALM      30.00F
WALKER         FAIR      71  56  59 CALM      30.01S
$$
MNZ012-019>021-037-240100-
   Northeast Minnesota

CITY           SKY/WX    TMP DP  RH WIND       PRES   REMARKS
DULUTH         MOSUNNY   63  59  87 CALM      30.02S
6HR MIN TEMP:  59; 6HR MAX TEMP:  65; 6HR PCP: TRACE;

ELY            MOSUNNY   72  50  46 CALM      30.01R
HIBBING        PTSUNNY   71  58  63 VRB3      30.00S
EVELETH        SUNNY     73  49  42 N3        30.01S
DULUTH HARBOR  SUNNY     63  59  88 N6        30.02S
TWO HARBORS    SUNNY     68  57  68 E5        30.01S
SILVER BAY     SUNNY     64  54  68 E3        30.01R
GRAND MARAIS     N/A     57  54  89 SW3       30.01S
G MARAIS ARPRT SUNNY     64  46  52 CALM      30.04R
$$
MNZ029>031-032-039>041-046>048-054>057-064-240100-
   West Central Minnesota

CITY           SKY/WX    TMP DP  RH WIND       PRES   REMARKS
FERGUS FALLS   SUNNY     75  61  60 N3        29.98S
WHEATON        SUNNY     73  57  56 NE5       30.01S
MORRIS         SUNNY     75  59  57 N6        29.98F
ALEXANDRIA     PTSUNNY   75  60  59 N5        30.01S
ELBOW LAKE     FAIR      73  61  67 N5        30.01R
WADENA         SUNNY     73  59  60 E7        29.99S
GLENWOOD       SUNNY     73  61  64 N5        30.00S
BENSON         SUNNY     75  61  60 NE3       30.00S
ORTONVILLE     SUNNY     73  57  56 N6        30.00S
MADISON        SUNNY     75  61  60 N7        29.99F
WILLMAR        PTSUNNY   75  61  60 N5        29.99F
$$
MNZ033>034-036-042>043-049>051-058-059-240100-
   Central Minnesota

CITY           SKY/WX    TMP DP  RH WIND       PRES   REMARKS
ST CLOUD       MOSUNNY   75  60  59 NE7       29.98S
6HR MIN TEMP:  71; 6HR MAX TEMP:  76;

SAUK CENTRE    FAIR      73  61  65 NE5       29.99S
PAYNESVILLE    SUNNY     74  57  54 N6        29.99S
AITKIN         CLOUDY    70  61  73 NE5       30.00S
PINE RIVER     SUNNY     72  57  60 NE3       30.04S
BRAINERD       SUNNY     73  57  57 NE5       29.99F
STAPLES        MOSUNNY   73  55  53 NE7       30.00S
LONG PRAIRIE   FAIR      72  59  64 N8        30.00S
LITTLE FALLS   MOSUNNY   72  59  64 NE5       30.00S
LITCHFIELD     PTSUNNY   75  63  64 NE5       29.98S
BUFFALO        MOSUNNY   74  58  57 NE8       29.99R
MAPLE LAKE     SUNNY     76  59  54 N8        29.99S
HUTCHINSON     CLOUDY    76  62  61 N8        29.98S
$$
MNZ037-044-045-052-053-240100-
   East Central Minnesota

CITY           SKY/WX    TMP DP  RH WIND       PRES   REMARKS
PRINCETON      CLOUDY    73  61  64 N7        29.99S
MORA           PTSUNNY   64  55  72 E3        30.02R
CAMBRIDGE      MOSUNNY   73  59  60 NE8       29.98R
RUSH CITY      MOSUNNY   69  59  71 NE6       30.00R
MOOSE LAKE     MOSUNNY   68  57  68 CALM      29.99F
HINCKLEY       FAIR      70  59  68 NE8       30.00S
CLOQUET        MOSUNNY   66  57  72 SE5       30.02S
MCGREGOR       CLOUDY    68  59  73 E6        30.01F
$$
MNZ071>073-080-081-089-090-097-098-240100-
   Southwest Minnesota

CITY           SKY/WX    TMP DP  RH WIND       PRES   REMARKS
MONTEVIDEO     PTSUNNY   75  59  57 NE6       29.99S
GRANITE FALLS  MOSUNNY   77  62  59 NW7       30.00F
CANBY          SUNNY     76  57  51 CALM      30.02R
MARSHALL       SUNNY     73  60  63 N7        30.00S
REDWOOD FALLS  SUNNY     77  57  50 N6        29.97F
OLIVIA         CLOUDY    73  59  60 CALM      29.98S
PIPESTONE      SUNNY     73  59  60 NE6       30.01F
WINDOM         SUNNY     72  59  64 N6        30.00R
WORTHINGTON    MOSUNNY   72  59  63 N8        30.01S
JACKSON        SUNNY     70  59  68 CALM      30.00S
SLAYTON        HVY RAIN  71  58  62 N6        30.02S
$$
MNZ065>067-074>077-082>085-091>093-240100-
   South Central Minnesota

CITY           SKY/WX    TMP DP  RH WIND       PRES   REMARKS
MANKATO        PTSUNNY   74  61  63 N7        29.96S
NEW ULM        SUNNY     75  57  53 N6        29.97S
ST JAMES       MOSUNNY   73  61  64 NW8       29.98S
FAIRMONT       SUNNY     74  61  63 N8        29.98S
GLENCOE        MOSUNNY   74  65  72 N6        29.97R
FARIBAULT      MOSUNNY   73  61  64 N6        29.96R
OWATONNA       CLOUDY    73  61  64 N8        29.96R
WASECA         MOSUNNY   72  59  64 N8        29.97S
ALBERT LEA     SUNNY     73  61  64 N9        29.96R
$$
MNZ078>079-086>088-094>096-240100-
   Southeast Minnesota

CITY           SKY/WX    TMP DP  RH WIND       PRES   REMARKS
ROCHESTER      MOSUNNY   71  61  70 N13       29.95R
6HR MIN TEMP:  70; 6HR MAX TEMP:  76;

RED WING       PTSUNNY   72  55  56 N7        29.95R
STANTON        SUNNY     74  57  56 NE12G18   29.95R
DODGE CENTER   MOSUNNY   73  59  60 N12G20    29.96R
WINONA         MOSUNNY   73  59  60 NW9       29.93S
AUSTIN         MOSUNNY   73  57  56 N9        29.94F
PRESTON        MOSUNNY   71  60  67 N10       29.94S
$$
ABBREVIATIONS USED IN REMARKS
   TC - TEMPERATURES IN CELSIUS
  WCI - WIND CHILL INDEX
   HX - HEAT INDEX
  VSB - VISIBILITY
$$



USA.gov is the U.S. government's official web portal to all federal, state and local government web resources and services.